Find OneWeb SL0229

NORAD ID: 48779 Int'l Des: 2021-045 Owner: ONEWEBN Country: UK Constellation: oneweb operational
別名: ONEWEB-0229 spacetrack, celestrak
LEOCIRCULARPOLARONEWEB_TYPE

現在のビュー

3D地球を読み込み中...

About OneWeb SL0229

OneWeb SL0229 (NORAD 48779) is a oneweb constellation satellite launched May 28, 2021 by ONEWEBN of UK. It operates in LEO, CIRCULAR, POLAR, ONEWEB_TYPE orbit with a mass of 148.00 kg.

次回通過

Passes for default location (London). Set your location on the main map for personalized predictions.

高度履歴

Loading altitude history...

軌道要素

1 48779U 21045N 26246.93318374 -.00000050 00000-0 -16648-3 0 9990
2 48779 87.8970 243.4937 0002164 87.3815 272.7563 13.15550242254767
Epoch: Sep 3, 2026 • Age: 11 hours

現在のステータス

高度 1203.5 km
遠地点 / 近地点 N/A
速度 7.25 km/s
衛星直下点 17.83°N, 118.98°E
打ち上げ日 May 28, 2021
運用期間 5.2 years
タイプ internet

技術仕様

分類 Payload
質量 148.00 kg
乾燥質量 140.00 kg
総質量 148.00 kg
長さ 1.30 m
直径 1.00 m
スパン 5.00 m
形状 Trapezoid+2 pan
製造者 ONEWUS
バスタイプ ARROW
フェーズステータス In Orbit
所有者/国 ONEWEBN/UK

Most Searched